This is the latest recevied weather packets stored in our database for station/object R2AKT-13. If no packets are shown the sender has not sent any weather packets the latest 10 day(s).
| Time | Temp. | Humidity | Pressure | Rain* | Wind** | Luminosity | Snow |
|---|---|---|---|---|---|---|---|
| 1777926259 | 18.89° C | 44% | 983.9 hPa | - | 1.79 m/s, 193° | - | - |
| 1777925709 | 18.89° C | 44% | 984 hPa | - | 1.79 m/s, 182° | - | - |
| 1777925134 | 18.89° C | 43% | 984 hPa | - | 2.24 m/s, 183° | - | - |
| 1777924584 | 18.89° C | 43% | 984 hPa | - | 2.24 m/s, 195° | - | - |
| 1777923999 | 19.44° C | 42% | 984 hPa | - | 1.79 m/s, 185° | - | - |
| 1777923459 | 19.44° C | 42% | 984.1 hPa | - | 1.79 m/s, 197° | - | - |
| 1777922894 | 19.44° C | 41% | 984.1 hPa | - | 2.24 m/s, 178° | - | - |
| 1777922339 | 20° C | 40% | 984.1 hPa | - | 1.34 m/s, 185° | - | - |
| 1777921859 | 20° C | 39% | 984.1 hPa | - | 1.34 m/s, 198° | - | - |
| 1777921324 | 20° C | 39% | 984.2 hPa | - | 2.24 m/s, 176° | - | - |
| 1777920839 | 20° C | 38% | 984.2 hPa | - | 1.34 m/s, 175° | - | - |
| 1777920300 | 20.56° C | 38% | 984.2 hPa | - | 1.34 m/s, 190° | - | - |
| 1777919809 | 20.56° C | 38% | 984.3 hPa | - | 1.34 m/s, 188° | - | - |
| 1777919309 | 20.56° C | 37% | 984.2 hPa | - | 0.89 m/s, 199° | - | - |
| 1777918799 | 21.11° C | 37% | 984.3 hPa | - | 0.89 m/s, 198° | - | - |
| 1777918229 | 21.11° C | 37% | 984.4 hPa | - | 0.45 m/s, 218° | - | - |
| 1777917734 | 21.11° C | 37% | 984.4 hPa | - | 0.45 m/s, 225° | - | - |
| 1777917151 | 21.11° C | 36% | 984.3 hPa | - | 0 m/s | - | - |
| 1777916634 | 21.11° C | 36% | 984.3 hPa | - | 0 m/s | - | - |
| 1777916069 | 21.67° C | 36% | 984.3 hPa | - | 0 m/s | - | - |
| 1777915499 | 21.67° C | 36% | 984.3 hPa | - | 0.45 m/s, 265° | - | - |
| 1777914939 | 21.67° C | 36% | 984.3 hPa | - | 0.45 m/s, 247° | - | - |
| 1777914339 | 22.22° C | 36% | 984.3 hPa | - | 0 m/s | - | - |
| 1777913804 | 22.22° C | 35% | 984.2 hPa | - | 0 m/s | - | - |
| 1777913235 | 22.78° C | 35% | 984.2 hPa | - | 0.45 m/s, 261° | - | - |
* Rain since midnight (hover to see other rain measurements)
** Current wind speed in m/s (hover to see current wind gust speed)